Location: Home
(51.5204°N, 2.5456°W)
Time: 04:54:47
(UTC+01:00)

ISS - Visible Passes

Search period start: 26 April 2019 00:00
Search period end: 06 May 2019 00:00
Orbit: 408 x 410 km, 51.6° (Epoch: 26 April)

Date Brightness Start Highest point End Pass type
(mag) Time Alt. Az. Time Alt. Az. Time Alt. Az.
02 May -1.3 04:15:17 10° SSE 04:16:40 12° SE 04:18:03 10° ESE visible
03 May -2.6 04:58:51 10° SW 05:01:51 32° SSE 05:04:52 10° E visible
04 May -2.1 04:09:20 15° S 04:11:07 22° SE 04:13:48 10° E visible
05 May -1.7 03:20:15 15° SE 03:20:26 15° SE 03:22:26 10° ESE visible
05 May -3.4 04:53:14 10° WSW 04:56:29 54° SSE 04:59:45 10° E visible
